KF4VX-15 Weather Reports


Display with metric or nautical units.
time (UTC)temp
F
wind
direction
speed
MPH
gust
MPH
rain 1hr
in
rain 24hr
in
rain mn
in
humidity
%
barometer
mb
20260504023022 48 62 0.0 2.0 0.00 0.00 0.00 77 1017.6
20260504021521 49 62 2.0 4.0 0.00 0.00 0.00 77 1017.4
20260504020022 50 62 2.0 4.0 0.00 0.00 0.00 73 1017.3
20260504014538 50 62 3.0 5.0 0.00 0.00 0.00 75 1017.2
20260504013020 51 62 3.0 4.0 0.00 0.00 0.00 74 1017.0
20260504011520 51 62 2.0 3.0 0.00 0.00 0.00 72 1016.7
20260504010019 52 62 1.0 4.0 0.00 0.00 0.00 70 1016.6
20260504004518 53 62 1.0 2.0 0.00 0.00 0.00 69 1016.5
20260504003018 55 62 0.0 1.0 0.00 0.00 0.00 67 1016.3
20260504001521 56 62 0.0 1.0 0.00 0.00 0.00 60 1016.2
20260504000034 58 62 0.0 1.0 0.00 0.00 0.00 56 1016.0
20260503234516 63 62 0.0 1.0 0.00 0.00 0.00 47 1015.9
20260503233019 67 62 0.0 3.0 0.00 0.00 0.00 43 1015.8
20260503231515 69 62 2.0 5.0 0.00 0.00 0.00 30 1015.8
20260503230014 69 62 2.0 7.0 0.00 0.00 0.00 29 1015.9
20260503224512 69 62 2.0 9.0 0.00 0.00 0.00 31 1015.9
20260503223011 69 62 2.0 9.0 0.00 0.00 0.00 29 1016.0
20260503221511 69 62 4.0 9.0 0.00 0.00 0.00 29 1015.9
20260503220012 68 62 7.0 11.0 0.00 0.00 0.00 30 1016.1
20260503214521 68 63 7.0 13.0 0.00 0.00 0.00 24 1016.0
20260503213006 68 63 5.0 14.0 0.00 0.00 0.00 26 1016.1
20260503211504 68 63 1.0 13.0 0.00 0.00 0.00 32 1016.1
20260503210009 68 64 4.0 10.0 0.00 0.00 0.00 37 1016.2
20260503204610 67 65 3.0 10.0 0.00 0.00 0.00 34 1016.3
20260503203106 67 65 5.0 15.0 0.00 0.00 0.00 38 1016.6
20260503201557 67 60 3.0 11.0 0.00 0.00 0.00 37 1016.9
20260503200055 66 60 5.0 14.0 0.00 0.00 0.00 38 1017.0
20260503194609 65 60 3.0 9.0 0.00 0.00 0.00 36 1017.4
20260503193052 65 60 3.0 11.0 0.00 0.00 0.00 35 1017.8
20260503191556 65 60 5.0 11.0 0.00 0.00 0.00 34 1018.1
20260503190058 65 60 5.0 12.0 0.00 0.00 0.00 39 1018.2
20260503184551 65 59 4.0 9.0 0.00 0.00 0.00 39 1018.4
20260503183051 64 62 3.0 11.0 0.00 0.00 0.00 37 1018.6
20260503181543 62 64 2.0 7.0 0.00 0.00 0.00 38 1018.7
20260503180051 62 64 3.0 14.0 0.00 0.00 0.00 38 1018.9
20260503174540 62 61 6.0 14.0 0.00 0.00 0.00 39 1018.9
20260503173108 61 59 3.0 12.0 0.00 0.00 0.00 39 1019.0
20260503171543 61 61 5.0 11.0 0.00 0.00 0.00 42 1019.3
20260503130107 48 61 3.0 8.0 0.00 0.00 0.00 78 1020.1
20260503081512 38 60 0.0 0.0 0.00 0.00 0.00 89 1017.6
20260503071601 39 60 0.0 0.0 0.00 0.00 0.00 88 1017.0
20260503054551 40 61 1.0 3.0 0.00 0.00 0.00 88 1016.7
20260503053050 40 60 0.0 2.0 0.00 0.00 0.00 87 1016.8
20260503051548 40 60 0.0 1.0 0.00 0.00 0.00 87 1016.8
20260503050047 40 60 0.0 1.0 0.00 0.00 0.00 86 1016.7
20260503044547 40 60 0.0 1.0 0.00 0.00 0.00 85 1016.7
20260503043042 41 60 0.0 0.0 0.00 0.00 0.00 84 1016.5
20260503041541 41 60 0.0 1.0 0.00 0.00 0.00 83 1016.5
20260503040036 41 60 0.0 1.0 0.00 0.00 0.00 84 1016.4
20260503034535 42 60 0.0 0.0 0.00 0.00 0.00 82 1016.2
20260503033031 42 61 0.0 0.0 0.00 0.00 0.00 81 1016.1
20260503031529 43 61 0.0 0.0 0.00 0.00 0.00 79 1016.1
20260503030029 44 60 0.0 0.0 0.00 0.00 0.00 79 1015.8
20260503024523 44 60 0.0 0.0 0.00 0.00 0.00 79 1015.6